Terminal Aerodrome Forecast
Issued by NWS

Home | Current Version | Previous Version | Text Only | Print | Product List | Glossary On
Versions: 1 2 3 4 5 6 7 8 9 10 11 12 13 14 15
000
FTUS41 KBTV 252300
TAFMPV
TAF
KMPV 252320Z 2600/2624 21003KT 6SM HZ FEW050 SCT200
     FM260800 00000KT 1/2SM FG VV001
     FM261200 VRB03KT 3SM BR SCT001
     FM261300 22008KT P6SM SCT050 BKN200=

USA.gov is the U.S. government's official web portal to all federal, state and local government web resources and services.